QPF
0.00 0.01 0.01 0.01 0.01 0.01 0.01 0.00 0.00 0.00 0.00 0.00 0.00 0.00 0.00 0.01 0.01 0.02 0.02 0.02 0.03 0.03 0.03 0.03 0.03 0.03 0.03 0.03 0.02 0.01 0.01 0.01 0.01 0.00 0.00 0.00 0.00 0.00 0.00 0.00 0.00 0.00 0.00
0.00 0.00 0.00 0.01 0.01 0.01 0.01 0.00 0.00 0.00 0.00 0.00 0.00 0.00 0.01 0.01 0.02 0.03 0.03 0.03 0.04 0.04 0.04 0.03 0.02 0.02 0.02 0.02 0.01 0.01 0.01 0.01 0.01 0.01 0.00 0.00 0.00 0.00 0.00 0.00 0.00 0.00 0.00
0.00 0.00 0.00 0.00 0.00 0.00 0.00 0.00 0.00 0.00 0.00 0.00 0.00 0.01 0.01 0.01 0.02 0.03 0.03 0.04 0.05 0.05 0.05 0.05 0.04 0.03 0.02 0.01 0.01 0.01 0.01 0.01 0.01 0.01 0.01 0.00 0.00 0.00 0.00 0.00 0.00 0.00 0.00
0.00 0.00 0.00 0.00 0.00 0.00 0.00 0.00 0.00 0.00 0.00 0.01 0.01 0.02 0.03 0.03 0.03 0.03 0.04 0.04 0.05 0.05 0.05 0.05 0.04 0.04 0.03 0.02 0.02 0.01 0.01 0.01 0.01 0.02 0.01 0.01 0.01 0.00 0.00 0.01 0.01 0.00 0.00
0.00 0.00 0.00 0.00 0.00 0.00 0.00 0.00 0.00 0.00 0.00 0.01 0.01 0.01 0.01 0.02 0.02 0.03 0.03 0.03 0.03 0.02 0.02 0.03 0.03 0.03 0.03 0.02 0.02 0.02 0.01 0.02 0.02 0.02 0.01 0.01 0.01 0.01 0.01 0.01 0.01 0.01 0.01
0.01 0.00 0.00 0.00 0.00 0.00 0.00 0.00 0.00 0.00 0.01 0.01 0.01 0.01 0.01 0.01 0.02 0.02 0.02 0.03 0.03 0.03 0.03 0.02 0.02 0.03 0.02 0.02 0.02 0.01 0.01 0.02 0.02 0.02 0.02 0.01 0.01 0.01 0.01 0.01 0.01 0.01 0.01
0.00 0.00 0.00 0.00 0.00 0.00 0.00 0.00 0.00 0.00 0.00 0.01 0.01 0.01 0.01 0.02 0.03 0.03 0.02 0.02 0.02 0.02 0.02 0.02 0.02 0.02 0.02 0.03 0.02 0.02 0.01 0.01 0.02 0.02 0.02 0.01 0.01 0.01 0.01 0.01 0.01 0.01 0.01
0.00 0.00 0.00 0.00 0.00 0.00 0.00 0.01 0.01 0.01 0.01 0.01 0.01 0.01 0.01 0.01 0.02 0.02 0.02 0.01 0.01 0.01 0.01 0.01 0.02 0.02 0.02 0.02 0.02 0.02 0.01 0.01 0.01 0.01 0.01 0.01 0.01 0.01 0.01 0.02 0.02 0.02 0.01
0.00 0.00 0.00 0.00 0.01 0.01 0.01 0.01 0.01 0.01 0.01 0.00 0.01 0.01 0.01 0.01 0.01 0.01 0.01 0.01 0.01 0.02 0.02 0.02 0.02 0.02 0.02 0.02 0.02 0.01 0.01 0.01 0.01 0.01 0.01 0.01 0.01 0.01 0.01 0.02 0.02 0.02 0.01
0.00 0.00 0.00 0.00 0.00 0.01 0.01 0.01 0.01 0.01 0.01 0.01 0.01 0.01 0.02 0.02 0.02 0.02 0.01 0.01 0.01 0.01 0.01 0.01 0.01 0.01 0.01 0.01 0.01 0.01 0.01 0.01 0.01 0.01 0.00 0.00 0.00 0.00 0.01 0.01 0.01 0.02 0.02
0.00 0.01 0.01 0.01 0.01 0.01 0.01 0.01 0.01 0.01 0.02 0.02 0.02 0.02 0.02 0.02 0.02 0.01 0.01 0.01 0.01 0.01 0.01 0.01 0.01 0.01 0.01 0.01 0.01 0.01 0.01 0.01 0.01 0.01 0.01 0.00 0.00 0.00 0.00 0.00 0.01 0.02 0.03
0.00 0.00 0.01 0.01 0.01 0.01 0.01 0.01 0.01 0.01 0.01 0.02 0.02 0.02 0.03 0.02 0.02 0.02 0.02 0.02 0.02 0.02 0.02 0.01 0.01 0.01 0.01 0.01 0.01 0.01 0.01 0.01 0.01 0.01 0.01 0.01 0.00 0.00 0.00 0.00 0.00 0.01 0.01
0.00 0.00 0.00 0.01 0.01 0.01 0.01 0.01 0.01 0.01 0.02 0.02 0.02 0.02 0.02 0.02 0.02 0.02 0.02 0.02 0.03 0.02 0.02 0.02 0.02 0.01 0.01 0.01 0.01 0.01 0.01 0.01 0.01 0.01 0.01 0.01 0.00 0.00 0.00 0.00 0.00 0.01 0.00
0.01 0.00 0.00 0.00 0.01 0.01 0.01 0.01 0.01 0.01 0.01 0.02 0.02 0.02 0.02 0.02 0.02 0.02 0.02 0.03 0.03 0.02 0.02 0.02 0.02 0.01 0.01 0.01 0.01 0.01 0.01 0.01 0.01 0.01 0.01 0.01 0.00 0.00 0.00 0.01 0.01 0.01 0.01
0.02 0.02 0.02 0.01 0.01 0.01 0.01 0.01 0.01 0.02 0.01 0.01 0.01 0.02 0.02 0.02 0.02 0.02 0.02 0.03 0.03 0.02 0.02 0.02 0.02 0.01 0.01 0.01 0.01 0.01 0.01 0.01 0.01 0.01 0.01 0.01 0.01 0.01 0.01 0.01 0.01 0.01 0.02
0.02 0.03 0.03 0.03 0.03 0.02 0.02 0.02 0.03 0.03 0.03 0.02 0.01 0.01 0.01 0.02 0.02 0.02 0.02 0.02 0.02 0.02 0.03 0.02 0.02 0.02 0.02 0.01 0.01 0.01 0.01 0.01 0.01 0.01 0.01 0.01 0.01 0.01 0.01 0.02 0.02 0.02 0.02
0.02 0.03 0.03 0.03 0.03 0.03 0.03 0.02 0.03 0.03 0.03 0.03 0.02 0.02 0.02 0.02 0.02 0.02 0.02 0.02 0.02 0.02 0.03 0.02 0.02 0.02 0.02 0.02 0.02 0.02 0.01 0.01 0.01 0.01 0.01 0.02 0.02 0.02 0.03 0.03 0.03 0.02 0.02
0.02 0.02 0.03 0.03 0.03 0.02 0.02 0.02 0.02 0.02 0.02 0.03 0.03 0.03 0.03 0.02 0.02 0.02 0.02 0.03 0.03 0.03 0.03 0.03 0.03 0.02 0.02 0.02 0.02 0.02 0.01 0.01 0.01 0.02 0.02 0.02 0.03 0.03 0.03 0.03 0.02 0.02 0.02
0.01 0.02 0.02 0.02 0.02 0.02 0.02 0.02 0.02 0.02 0.02 0.02 0.03 0.03 0.02 0.02 0.02 0.02 0.02 0.03 0.03 0.03 0.03 0.03 0.02 0.02 0.02 0.01 0.01 0.01 0.02 0.02 0.02 0.02 0.02 0.02 0.02 0.03 0.03 0.02 0.02 0.02 0.02
0.02 0.02 0.02 0.02 0.02 0.02 0.02 0.02 0.02 0.02 0.02 0.02 0.02 0.02 0.02 0.02 0.02 0.02 0.02 0.02 0.02 0.02 0.02 0.02 0.02 0.02 0.02 0.02 0.02 0.02 0.02 0.02 0.02 0.02 0.02 0.02 0.02 0.02 0.02 0.02 0.02 0.02 0.02
0.02 0.02 0.02 0.02 0.02 0.02 0.02 0.02 0.02 0.02 0.02 0.02 0.02 0.02 0.03 0.03 0.02 0.02 0.02 0.02 0.02 0.02 0.02 0.02 0.02 0.02 0.01 0.01 0.02 0.02 0.02 0.01 0.01 0.01 0.01 0.02 0.02 0.02 0.02 0.02 0.02 0.02 0.02
0.02 0.02 0.02 0.02 0.02 0.02 0.02 0.02 0.02 0.02 0.02 0.02 0.02 0.02 0.02 0.02 0.02 0.02 0.02 0.02 0.02 0.02 0.02 0.02 0.02 0.01 0.01 0.02 0.02 0.01 0.01 0.01 0.01 0.01 0.01 0.01 0.01 0.01 0.01 0.02 0.02 0.02 0.02
0.02 0.02 0.02 0.02 0.02 0.02 0.02 0.02 0.01 0.01 0.01 0.01 0.01 0.01 0.01 0.02 0.02 0.02 0.02 0.02 0.02 0.02 0.02 0.02 0.01 0.01 0.01 0.01 0.01 0.02 0.02 0.02 0.02 0.02 0.02 0.02 0.02 0.02 0.02 0.02 0.02 0.02 0.01
0.01 0.01 0.02 0.02 0.02 0.02 0.01 0.01 0.01 0.01 0.01 0.01 0.01 0.01 0.01 0.02 0.02 0.02 0.02 0.02 0.02 0.02 0.02 0.02 0.01 0.01 0.01 0.01 0.01 0.01 0.02 0.02 0.02 0.02 0.02 0.02 0.02 0.02 0.02 0.02 0.02 0.01 0.01
0.01 0.01 0.02 0.02 0.02 0.02 0.02 0.02 0.02 0.02 0.02 0.02 0.01 0.01 0.01 0.02 0.02 0.02 0.02 0.02 0.02 0.02 0.02 0.02 0.02 0.01 0.01 0.01 0.01 0.01 0.01 0.01 0.01 0.02 0.02 0.02 0.02 0.02 0.02 0.01 0.01 0.01 0.01
0.01 0.01 0.01 0.02 0.02 0.02 0.02 0.02 0.02 0.02 0.02 0.02 0.02 0.01 0.02 0.02 0.02 0.02 0.02 0.02 0.02 0.02 0.02 0.01 0.01 0.01 0.01 0.01 0.01 0.01 0.01 0.01 0.01 0.02 0.02 0.03 0.02 0.02 0.01 0.01 0.01 0.01 0.01
MSLP
1012.71 1012.27 1011.78 1011.24 1010.69 1010.17 1009.74 1009.43 1009.26 1009.26 1009.40 1009.67 1010.02 1010.42 1010.85 1011.30 1011.75 1012.22 1012.71 1013.23 1013.78 1014.35 1014.91 1015.46 1015.97 1016.43 1016.87 1017.27 1017.69 1018.14 1018.64 1019.20 1019.82 1020.46 1021.10 1021.68 1022.14 1022.47 1022.62 1022.60 1022.43 1022.14 1021.76
1013.44 1012.95 1012.40 1011.79 1011.17 1010.56 1010.02 1009.59 1009.31 1009.18 1009.21 1009.36 1009.63 1009.97 1010.37 1010.82 1011.31 1011.83 1012.40 1013.01 1013.65 1014.31 1014.96 1015.58 1016.16 1016.68 1017.16 1017.61 1018.06 1018.53 1019.05 1019.62 1020.24 1020.88 1021.49 1022.02 1022.43 1022.68 1022.75 1022.64 1022.37 1021.98 1021.51
1014.18 1013.65 1013.06 1012.42 1011.74 1011.08 1010.48 1009.97 1009.59 1009.36 1009.27 1009.33 1009.51 1009.78 1010.15 1010.59 1011.09 1011.67 1012.30 1012.99 1013.72 1014.46 1015.19 1015.88 1016.52 1017.10 1017.62 1018.11 1018.58 1019.08 1019.61 1020.18 1020.79 1021.41 1021.98 1022.46 1022.81 1022.98 1022.96 1022.76 1022.39 1021.90 1021.35
1014.90 1014.34 1013.74 1013.08 1012.40 1011.72 1011.09 1010.54 1010.10 1009.79 1009.63 1009.60 1009.70 1009.91 1010.23 1010.65 1011.17 1011.77 1012.45 1013.20 1013.99 1014.80 1015.59 1016.33 1017.02 1017.63 1018.19 1018.70 1019.19 1019.69 1020.22 1020.79 1021.38 1021.97 1022.50 1022.94 1023.23 1023.33 1023.24 1022.96 1022.51 1021.95 1021.32
1015.60 1015.03 1014.42 1013.78 1013.11 1012.45 1011.83 1011.28 1010.82 1010.48 1010.27 1010.18 1010.22 1010.38 1010.65 1011.04 1011.55 1012.16 1012.86 1013.64 1014.46 1015.30 1016.13 1016.90 1017.61 1018.24 1018.80 1019.32 1019.81 1020.31 1020.83 1021.37 1021.94 1022.49 1022.99 1023.38 1023.63 1023.69 1023.55 1023.23 1022.75 1022.14 1021.47
1016.31 1015.73 1015.12 1014.50 1013.87 1013.25 1012.67 1012.16 1011.72 1011.39 1011.15 1011.03 1011.03 1011.15 1011.38 1011.74 1012.22 1012.81 1013.50 1014.28 1015.11 1015.95 1016.77 1017.55 1018.25 1018.88 1019.43 1019.93 1020.41 1020.88 1021.37 1021.89 1022.42 1022.94 1023.40 1023.76 1023.98 1024.02 1023.88 1023.56 1023.07 1022.47 1021.80
1017.03 1016.44 1015.84 1015.25 1014.66 1014.11 1013.59 1013.13 1012.74 1012.44 1012.22 1012.10 1012.07 1012.16 1012.36 1012.68 1013.11 1013.67 1014.33 1015.07 1015.87 1016.69 1017.48 1018.23 1018.91 1019.52 1020.05 1020.52 1020.97 1021.41 1021.87 1022.34 1022.82 1023.29 1023.72 1024.05 1024.26 1024.31 1024.19 1023.90 1023.47 1022.91 1022.26
1017.77 1017.17 1016.58 1016.01 1015.47 1014.98 1014.53 1014.14 1013.82 1013.56 1013.38 1013.27 1013.25 1013.31 1013.48 1013.76 1014.15 1014.66 1015.27 1015.96 1016.71 1017.48 1018.23 1018.94 1019.59 1020.16 1020.66 1021.11 1021.52 1021.92 1022.32 1022.74 1023.17 1023.59 1023.97 1024.27 1024.47 1024.54 1024.46 1024.23 1023.86 1023.38 1022.80
1018.52 1017.90 1017.32 1016.77 1016.27 1015.83 1015.45 1015.13 1014.87 1014.67 1014.53 1014.45 1014.44 1014.51 1014.65 1014.90 1015.24 1015.69 1016.24 1016.88 1017.57 1018.28 1018.99 1019.66 1020.27 1020.82 1021.29 1021.71 1022.08 1022.44 1022.79 1023.15 1023.51 1023.86 1024.18 1024.45 1024.63 1024.71 1024.66 1024.50 1024.21 1023.81 1023.31
1019.23 1018.62 1018.03 1017.50 1017.03 1016.63 1016.30 1016.04 1015.84 1015.70 1015.61 1015.57 1015.58 1015.64 1015.78 1016.00 1016.31 1016.71 1017.20 1017.78 1018.42 1019.08 1019.75 1020.38 1020.97 1021.50 1021.96 1022.35 1022.70 1023.01 1023.31 1023.60 1023.88 1024.15 1024.39 1024.60 1024.74 1024.81 1024.79 1024.67 1024.45 1024.13 1023.71
1019.90 1019.28 1018.69 1018.17 1017.71 1017.34 1017.05 1016.84 1016.69 1016.60 1016.56 1016.55 1016.59 1016.67 1016.81 1017.02 1017.31 1017.67 1018.13 1018.66 1019.25 1019.87 1020.51 1021.12 1021.70 1022.22 1022.67 1023.06 1023.38 1023.66 1023.91 1024.12 1024.31 1024.49 1024.64 1024.76 1024.84 1024.87 1024.84 1024.74 1024.57 1024.31 1023.95
1020.47 1019.86 1019.28 1018.76 1018.32 1017.97 1017.71 1017.53 1017.42 1017.37 1017.37 1017.40 1017.48 1017.59 1017.74 1017.95 1018.23 1018.58 1019.01 1019.51 1020.07 1020.66 1021.28 1021.88 1022.45 1022.98 1023.43 1023.82 1024.13 1024.38 1024.57 1024.72 1024.82 1024.90 1024.94 1024.96 1024.96 1024.92 1024.85 1024.73 1024.56 1024.33 1024.01
1020.94 1020.34 1019.77 1019.27 1018.84 1018.51 1018.26 1018.11 1018.03 1018.02 1018.06 1018.14 1018.26 1018.41 1018.59 1018.82 1019.11 1019.46 1019.87 1020.35 1020.89 1021.47 1022.07 1022.66 1023.23 1023.76 1024.22 1024.61 1024.91 1025.14 1025.29 1025.37 1025.39 1025.37 1025.31 1025.22 1025.11 1024.98 1024.84 1024.68 1024.48 1024.24 1023.92
1021.29 1020.72 1020.18 1019.69 1019.29 1018.97 1018.76 1018.63 1018.59 1018.61 1018.69 1018.82 1018.98 1019.17 1019.40 1019.66 1019.97 1020.33 1020.74 1021.21 1021.73 1022.29 1022.87 1023.46 1024.02 1024.54 1025.01 1025.39 1025.68 1025.89 1026.00 1026.03 1025.99 1025.88 1025.72 1025.53 1025.32 1025.10 1024.87 1024.64 1024.38 1024.10 1023.75
1021.52 1020.99 1020.50 1020.06 1019.69 1019.41 1019.23 1019.13 1019.13 1019.19 1019.32 1019.49 1019.70 1019.94 1020.21 1020.51 1020.85 1021.22 1021.64 1022.10 1022.61 1023.14 1023.69 1024.25 1024.79 1025.29 1025.74 1026.11 1026.40 1026.58 1026.67 1026.67 1026.57 1026.40 1026.17 1025.90 1025.60 1025.29 1024.97 1024.65 1024.32 1023.97 1023.57
1021.65 1021.19 1020.76 1020.38 1020.07 1019.85 1019.71 1019.67 1019.70 1019.81 1019.98 1020.21 1020.47 1020.76 1021.07 1021.41 1021.78 1022.16 1022.58 1023.03 1023.50 1024.00 1024.51 1025.02 1025.51 1025.98 1026.39 1026.74 1027.00 1027.17 1027.24 1027.22 1027.10 1026.90 1026.62 1026.30 1025.94 1025.55 1025.16 1024.76 1024.35 1023.91 1023.43
1021.71 1021.33 1020.99 1020.70 1020.47 1020.33 1020.26 1020.27 1020.36 1020.52 1020.74 1021.00 1021.31 1021.64 1022.00 1022.36 1022.75 1023.14 1023.55 1023.97 1024.40 1024.84 1025.29 1025.73 1026.16 1026.57 1026.93 1027.23 1027.47 1027.62 1027.68 1027.65 1027.53 1027.32 1027.04 1026.69 1026.30 1025.87 1025.42 1024.95 1024.45 1023.93 1023.36
1021.74 1021.47 1021.23 1021.05 1020.92 1020.87 1020.88 1020.96 1021.11 1021.32 1021.59 1021.89 1022.23 1022.59 1022.97 1023.36 1023.75 1024.13 1024.52 1024.90 1025.28 1025.65 1026.02 1026.39 1026.73 1027.06 1027.35 1027.60 1027.80 1027.93 1027.99 1027.96 1027.84 1027.65 1027.38 1027.03 1026.63 1026.18 1025.69 1025.17 1024.61 1024.01 1023.36
1021.79 1021.63 1021.51 1021.45 1021.44 1021.49 1021.60 1021.75 1021.96 1022.22 1022.52 1022.85 1023.21 1023.59 1023.97 1024.36 1024.73 1025.10 1025.45 1025.79 1026.10 1026.40 1026.69 1026.96 1027.21 1027.45 1027.67 1027.86 1028.01 1028.11 1028.15 1028.13 1028.03 1027.86 1027.61 1027.28 1026.89 1026.43 1025.92 1025.36 1024.75 1024.09 1023.37
1021.90 1021.86 1021.87 1021.93 1022.05 1022.20 1022.40 1022.63 1022.89 1023.18 1023.50 1023.85 1024.21 1024.58 1024.95 1025.32 1025.67 1026.01 1026.32 1026.60 1026.85 1027.07 1027.27 1027.45 1027.61 1027.76 1027.90 1028.02 1028.11 1028.18 1028.21 1028.18 1028.09 1027.94 1027.71 1027.40 1027.02 1026.57 1026.05 1025.47 1024.82 1024.11 1023.34
1022.11 1022.19 1022.32 1022.51 1022.73 1022.99 1023.26 1023.55 1023.86 1024.17 1024.50 1024.83 1025.18 1025.52 1025.87 1026.20 1026.52 1026.81 1027.07 1027.30 1027.48 1027.64 1027.76 1027.86 1027.94 1028.01 1028.07 1028.12 1028.16 1028.18 1028.18 1028.14 1028.05 1027.90 1027.68 1027.38 1027.01 1026.56 1026.03 1025.43 1024.76 1024.03 1023.23
1022.46 1022.64 1022.88 1023.17 1023.49 1023.82 1024.16 1024.49 1024.82 1025.14 1025.45 1025.76 1026.07 1026.37 1026.67 1026.96 1027.23 1027.48 1027.69 1027.87 1028.00 1028.09 1028.15 1028.18 1028.19 1028.19 1028.18 1028.17 1028.15 1028.13 1028.09 1028.02 1027.91 1027.75 1027.52 1027.22 1026.84 1026.39 1025.85 1025.24 1024.56 1023.82 1023.02
1022.95 1023.22 1023.54 1023.91 1024.29 1024.68 1025.05 1025.40 1025.72 1026.03 1026.31 1026.57 1026.83 1027.08 1027.33 1027.57 1027.79 1027.99 1028.16 1028.29 1028.38 1028.43 1028.44 1028.42 1028.38 1028.32 1028.26 1028.19 1028.12 1028.04 1027.96 1027.85 1027.71 1027.51 1027.26 1026.94 1026.55 1026.07 1025.52 1024.90 1024.22 1023.49 1022.71
1023.57 1023.90 1024.28 1024.69 1025.11 1025.51 1025.89 1026.23 1026.53 1026.79 1027.03 1027.24 1027.44 1027.64 1027.83 1028.01 1028.18 1028.34 1028.47 1028.56 1028.62 1028.64 1028.62 1028.57 1028.49 1028.39 1028.28 1028.17 1028.05 1027.93 1027.79 1027.64 1027.45 1027.22 1026.93 1026.58 1026.16 1025.66 1025.10 1024.48 1023.81 1023.09 1022.35
1024.30 1024.65 1025.06 1025.48 1025.90 1026.29 1026.64 1026.95 1027.20 1027.42 1027.60 1027.75 1027.89 1028.03 1028.16 1028.29 1028.42 1028.54 1028.63 1028.70 1028.74 1028.73 1028.69 1028.62 1028.51 1028.39 1028.25 1028.10 1027.94 1027.78 1027.60 1027.39 1027.16 1026.89 1026.56 1026.17 1025.72 1025.21 1024.64 1024.02 1023.37 1022.69 1021.99
1025.07 1025.43 1025.83 1026.23 1026.61 1026.96 1027.27 1027.52 1027.72 1027.88 1028.00 1028.10 1028.18 1028.27 1028.35 1028.44 1028.52 1028.61 1028.67 1028.72 1028.73 1028.71 1028.66 1028.57 1028.44 1028.30 1028.13 1027.95 1027.77 1027.56 1027.35 1027.11 1026.83 1026.52 1026.16 1025.75 1025.28 1024.76 1024.19 1023.58 1022.95 1022.31 1021.67
Thickness
5592 5591 5590 5590 5589 5588 5587 5585 5584 5582 5580 5578 5576 5573 5571 5568 5566 5564 5561 5558 5555 5551 5547 5544 5540 5535 5532 5528 5524 5520 5516 5513 5512 5512 5506 5500 5495 5491 5488 5485 5482 5480 5479
5580 5580 5579 5578 5578 5577 5576 5575 5573 5571 5570 5568 5566 5564 5561 5559 5557 5555 5552 5548 5545 5541 5537 5533 5529 5524 5520 5517 5513 5509 5506 5502 5499 5498 5495 5490 5486 5481 5478 5475 5472 5470 5468
5568 5568 5568 5567 5566 5566 5565 5563 5562 5560 5559 5557 5555 5554 5552 5549 5547 5544 5541 5538 5534 5530 5526 5522 5518 5513 5510 5506 5502 5498 5495 5491 5488 5486 5484 5479 5476 5471 5468 5466 5463 5460 5458
5556 5556 5556 5555 5554 5554 5553 5552 5550 5549 5548 5547 5544 5543 5541 5539 5536 5533 5530 5527 5523 5519 5514 5510 5506 5503 5499 5496 5491 5488 5484 5481 5478 5475 5472 5469 5465 5461 5458 5456 5455 5452 5450
5544 5544 5543 5542 5541 5541 5540 5540 5539 5538 5536 5535 5533 5531 5529 5527 5524 5521 5518 5515 5512 5508 5503 5499 5495 5491 5487 5484 5480 5477 5474 5471 5467 5464 5462 5459 5456 5451 5448 5445 5443 5443 5441
5531 5531 5530 5530 5529 5529 5529 5528 5527 5526 5524 5523 5521 5519 5517 5515 5513 5509 5507 5504 5501 5497 5493 5488 5485 5480 5477 5472 5469 5466 5463 5460 5457 5453 5451 5448 5446 5442 5438 5434 5431 5430 5431
5518 5518 5518 5518 5517 5517 5516 5515 5515 5513 5512 5510 5509 5507 5506 5504 5500 5498 5494 5492 5489 5485 5481 5477 5474 5470 5466 5462 5459 5455 5452 5448 5445 5442 5440 5438 5435 5431 5426 5423 5420 5417 5417
5504 5505 5505 5505 5504 5504 5503 5503 5502 5501 5499 5498 5497 5495 5494 5491 5488 5485 5482 5480 5477 5474 5470 5467 5463 5460 5455 5451 5449 5445 5442 5438 5435 5431 5429 5427 5423 5419 5414 5411 5408 5406 5405
5491 5491 5492 5492 5492 5491 5490 5490 5489 5488 5487 5485 5484 5482 5481 5479 5476 5473 5470 5468 5465 5462 5458 5455 5452 5448 5445 5441 5438 5435 5432 5428 5424 5421 5418 5415 5412 5408 5403 5400 5398 5396 5396
5477 5477 5477 5478 5479 5478 5478 5477 5476 5475 5474 5472 5471 5469 5468 5466 5463 5461 5459 5457 5454 5451 5447 5444 5440 5437 5434 5430 5427 5424 5421 5418 5415 5412 5409 5405 5402 5398 5393 5389 5386 5384 5383
5463 5463 5464 5465 5465 5465 5465 5464 5464 5462 5461 5459 5458 5456 5455 5453 5451 5449 5447 5444 5442 5439 5437 5434 5430 5426 5423 5419 5416 5413 5411 5407 5404 5402 5399 5396 5392 5389 5385 5380 5376 5372 5371
5450 5451 5451 5452 5452 5452 5452 5452 5451 5449 5447 5446 5444 5443 5441 5439 5438 5436 5434 5432 5429 5427 5426 5423 5420 5416 5412 5409 5406 5403 5399 5396 5393 5391 5389 5386 5383 5379 5375 5371 5367 5363 5360
5437 5438 5439 5439 5439 5439 5439 5439 5438 5436 5434 5432 5431 5430 5428 5426 5425 5423 5422 5420 5417 5416 5414 5411 5408 5404 5401 5398 5395 5392 5389 5386 5383 5380 5378 5375 5371 5368 5364 5362 5358 5355 5353
5425 5426 5426 5426 5426 5426 5426 5425 5424 5422 5421 5419 5418 5417 5416 5414 5413 5412 5410 5408 5406 5404 5402 5399 5396 5394 5390 5387 5385 5382 5379 5375 5372 5369 5366 5363 5360 5358 5355 5353 5351 5349 5347
5412 5413 5413 5413 5413 5412 5412 5411 5410 5409 5407 5406 5405 5404 5403 5403 5402 5400 5399 5397 5395 5393 5390 5388 5386 5383 5381 5378 5375 5372 5368 5365 5362 5359 5356 5354 5351 5349 5347 5344 5342 5340 5338
5399 5400 5400 5400 5400 5400 5399 5398 5396 5395 5394 5393 5392 5392 5391 5391 5389 5389 5387 5386 5384 5382 5380 5378 5376 5374 5371 5368 5365 5361 5358 5355 5352 5349 5347 5344 5342 5340 5339 5337 5334 5332 5331
5386 5387 5387 5387 5387 5387 5386 5386 5385 5383 5382 5381 5380 5380 5379 5379 5378 5377 5376 5375 5373 5372 5370 5368 5366 5363 5360 5357 5354 5351 5349 5346 5343 5340 5338 5336 5334 5332 5331 5329 5327 5325 5323
5373 5374 5375 5375 5375 5374 5374 5373 5372 5372 5371 5370 5369 5368 5368 5368 5367 5366 5365 5364 5363 5361 5359 5357 5355 5352 5349 5347 5344 5342 5340 5337 5335 5333 5331 5329 5327 5326 5324 5322 5320 5318 5316
5361 5362 5362 5362 5362 5362 5362 5361 5360 5359 5359 5359 5359 5358 5357 5357 5356 5355 5354 5353 5352 5351 5349 5346 5344 5342 5340 5338 5336 5334 5331 5330 5328 5326 5325 5323 5321 5319 5317 5315 5312 5310 5308
5349 5349 5349 5350 5350 5350 5350 5349 5349 5348 5348 5348 5348 5348 5347 5346 5346 5345 5344 5343 5342 5340 5339 5337 5335 5333 5331 5329 5328 5326 5324 5323 5322 5320 5318 5317 5314 5312 5310 5307 5305 5303 5301
5337 5338 5338 5339 5339 5339 5339 5339 5338 5338 5338 5338 5338 5337 5337 5336 5336 5335 5334 5333 5332 5331 5330 5328 5327 5325 5324 5322 5321 5319 5318 5317 5315 5313 5311 5310 5307 5305 5302 5300 5297 5296 5294
5327 5328 5328 5328 5329 5329 5329 5329 5329 5329 5329 5329 5329 5328 5327 5327 5326 5325 5325 5324 5323 5322 5321 5320 5319 5318 5317 5315 5314 5313 5312 5311 5309 5307 5305 5303 5300 5298 5295 5293 5291 5289 5288
5317 5318 5319 5319 5319 5320 5320 5320 5320 5320 5320 5319 5319 5319 5318 5318 5318 5317 5316 5316 5315 5315 5314 5313 5313 5312 5310 5309 5308 5306 5305 5304 5302 5300 5298 5296 5294 5292 5289 5287 5285 5284 5282
5308 5309 5310 5310 5311 5311 5311 5311 5311 5311 5310 5310 5310 5310 5310 5310 5310 5309 5309 5308 5308 5307 5307 5307 5306 5306 5304 5303 5302 5300 5299 5297 5295 5293 5291 5289 5288 5286 5284 5282 5280 5279 5278
5299 5299 5300 5301 5301 5302 5302 5302 5302 5302 5301 5301 5302 5302 5302 5302 5302 5302 5302 5301 5301 5301 5301 5300 5300 5300 5299 5297 5296 5295 5293 5292 5290 5288 5286 5284 5283 5281 5279 5277 5276 5274 5273
5289 5290 5291 5292 5292 5292 5293 5293 5293 5293 5293 5293 5294 5294 5295 5295 5295 5295 5294 5294 5294 5294 5294 5294 5294 5293 5292 5291 5290 5289 5288 5286 5285 5283 5281 5280 5278 5277 5275 5274 5272 5271 5269